Regional Weather Roundup
Issued by NWS

Home | Current Version | Previous Version | Graphics & Text | Print | Product List | Glossary On
Versions: 1 2 3 4 5 6 7 8 9 10 11 12 13 14 15 16 17 18 19 20 21 22 23 24 25 26 27 28 29 30 31 32 33 34 35 36 37 38 39 40 41 42 43 44 45 46 47 48 49 50
000
ASUS43 KDMX 230307
RWRIA

WEATHER ROUNDUP FOR IOWA
NATIONAL WEATHER SERVICE DES MOINES IA
1000 PM CDT FRI MAY 22 2015

NOTE: "FAIR" INDICATES FEW OR NO CLOUDS BELOW 12,000 FEET WITH NO
SIGNIFICANT WEATHER AND/OR OBSTRUCTIONS TO VISIBILITY.

* - THESE STATIONS ARE NOT NWS STATIONS...THUS NOT UNDER NWS
QUALITY CONTROL.  THEY ALSO DO NOT REPORT WEATHER SUCH
AS PRECIPITATION OR FOG.

IAZ001>003-012>014-020>022-031>034-043>046-230400-
   NORTHWEST IOWA

CITY           SKY/WX    TMP DP  RH WIND       PRES   REMARKS
CARROLL *      CLOUDY    61  45  55 S7        30.20R
CHEROKEE *     CLOUDY    57  48  72 CALM      30.19F
DENISON *      MOCLDY    57  52  82 SE6       30.19R
LE MARS *      CLOUDY    64  39  39 SE9G21    30.19S
ORANGE CITY *  MOCLDY    57  45  62 CALM      30.20R
SHELDON *      MOCLDY    59  43  55 SW6       30.20R
SIOUX CITY     CLOUDY    59  47  64 SE8       30.19R
SPENCER        CLOUDY    61  45  55 W7        30.21R
STORM LAKE *   CLOUDY    59  46  63 W3        30.20F
$$

IAZ055>058-069>071-079>083-090>094-230400-
   SOUTHWEST IOWA

CITY           SKY/WX    TMP DP  RH WIND       PRES   REMARKS
ATLANTIC *     CLOUDY    63  43  48 SE6       30.21R
AUDUBON *      MOCLDY    57  52  82 CALM      30.22R
CLARINDA *     CLEAR     55  50  82 CALM      30.22S
COUNCIL BLFS * CLOUDY    59  50  72 S8        30.20R
CRESTON *      MOCLDY    59  50  72 S5        30.23R
HARLAN  *      CLOUDY    59  50  72 CALM      30.23S
LAMONI           N/A     63  52  67 SE5       30.22S
RED OAK *      CLOUDY    61  50  67 CALM      30.21R
SHENANDOAH *   MOCLDY    59  50  72 SE6       30.21R
$$

IAZ047>049-059>061-072>074-084-230400-
   CENTRAL IOWA

CITY           SKY/WX    TMP DP  RH WIND       PRES   REMARKS
AMES           CLOUDY    62  45  53 S5        30.21R
ANKENY *       CLOUDY    63  46  55 CALM      30.21S
CHARITON *       N/A     61  50  67 CALM      30.22R
DES MOINES     CLOUDY    64  47  53 S3        30.22R
GRINNELL*      CLOUDY    64  50  59 SW8       30.23R
KNOXVILLE *    CLOUDY    64  46  52 NW5       30.21S
MARSHALLTOWN   CLOUDY    64  44  48 SW10      30.20R
PELLA *        CLOUDY    63  54  72 W3        30.23S
PERRY *        CLOUDY    61  46  59 CALM      30.21R
$$

IAZ004>006-015-016-023>025-035-036-230400-
   NORTH CENTRAL IOWA

CITY           SKY/WX    TMP DP  RH WIND       PRES   REMARKS
ALGONA *       CLEAR     63  45  51 W14       30.21R
CLARION *      CLEAR     63  46  55 W12G18    30.21R
ESTHERVILLE    CLOUDY    62  41  46 W17       30.20R
FORT DODGE *   CLOUDY    59  45  58 SW3       30.22R
MASON CITY     CLOUDY    63  40  42 S6        30.21R
FOREST CITY *  CLEAR     55  45  67 CALM      30.19S
IOWA FALLS *     N/A     63  43  48 W15       30.22R
$$

IAZ007>011-017>019-026>030-037>042-050>054-066-230400-
   NORTHEAST IOWA

CITY           SKY/WX    TMP DP  RH WIND       PRES   REMARKS
CEDAR RAPIDS   CLOUDY    63  44  50 CALM      30.21R
CHARLES CITY * CLEAR     64  37  36 S7        30.21R
CLINTON *      CLOUDY    61  45  55 E6        30.25R
DECORAH *      PTCLDY    63  39  42 SE5       30.21R
DUBUQUE        CLOUDY    62  44  51 SE7       30.23R
MONTICELLO *   CLEAR     63  46  55 CALM      30.22R
OELWEIN *      CLEAR     64  43  45 S6        30.22R
WATERLOO       CLOUDY    61  48  62 CALM      30.20R
$$

IAZ064-065-067-068-078-230400-
   EAST CENTRAL IOWA

CITY           SKY/WX    TMP DP  RH WIND       PRES   REMARKS
DAVENPORT      CLOUDY    63  41  44 NE5       30.23R
IOWA CITY      CLOUDY    64  49  57 CALM      30.23R
MT. PLEASANT * CLOUDY    64  52  63 SW8       30.23R
MUSCATINE *    MOCLDY    64  50  59 CALM      30.22R
QUAD CITIES    CLOUDY    60  48  64 SW5       30.22R
$$

IAZ062-063-075>077-085>089-095>099-230400-
   SOUTHEAST IOWA

CITY           SKY/WX    TMP DP  RH WIND       PRES   REMARKS
BURLINGTON     CLOUDY    65  54  67 W7        30.23R
FAIRFIELD *    CLOUDY    64  54  68 S7        30.24R
FORT MADISON * MOCLDY    63  55  77 SW3       30.25R
KEOKUK *       CLOUDY    63  54  72 SW6       30.23S
OSKALOOSA *    CLOUDY    64  50  59 N3        30.22F
CENTERVILLE *  CLEAR     57  57 100 CALM      30.24S
OTTUMWA        CLOUDY    63  52  67 S3        30.22S
WASHINGTON *   CLOUDY    64  45  48 SW6       30.24R
$$

ABBREVIATIONS USED IN REMARKS
   TC - TEMPERATURES IN CELSIUS
  WCI - WIND CHILL INDEX
   HX - HEAT INDEX
  VSB - VISIBILITY
$$




USA.gov is the U.S. government's official web portal to all federal, state and local government web resources and services.